Probability
13 10 16 19 16 13 13 10 10 10 10 10 6 6 6 3 6 10 10 10 10 10 13 16 16 16 13 10 10 10 10 10 10 10 10 13 13 10 10 10 10 6 3
13 10 10 23 26 13 13 10 6 10 10 10 10 10 10 6 10 10 10 10 10 10 10 13 13 16 16 13 10 10 10 10 10 10 13 10 10 13 10 10 10 6 3
6 6 13 16 19 19 10 6 6 6 13 10 10 10 10 6 10 13 13 13 10 10 10 10 10 16 16 13 13 13 13 10 10 10 13 10 10 10 6 6 6 6 3
10 13 16 13 19 19 16 13 16 10 10 13 13 16 13 10 13 16 16 13 10 10 13 13 10 13 13 13 13 16 13 13 10 10 13 10 10 6 6 6 10 6 6
13 16 16 19 19 16 16 16 13 13 13 10 10 16 13 13 13 19 19 13 16 16 16 13 10 10 10 10 10 13 13 16 16 13 10 13 10 6 6 6 6 10 10
13 16 19 16 13 16 16 13 13 10 10 13 10 6 6 6 6 3 6 10 13 16 16 16 13 13 13 10 6 6 10 13 10 10 10 10 10 10 10 6 10 10 13
10 10 10 13 10 10 10 6 10 13 13 6 6 6 6 3 3 3 0 3 10 10 13 16 13 13 13 13 13 3 3 0 0 10 6 6 10 10 10 10 6 10 13
10 6 6 6 10 10 10 10 6 6 3 6 10 13 13 13 3 3 3 0 6 10 13 13 16 16 13 10 10 16 13 13 10 6 10 13 10 10 10 6 6 3 6
10 10 10 6 6 10 10 6 3 3 3 3 6 6 13 10 6 6 0 6 10 13 13 10 10 13 10 0 6 10 13 16 6 0 0 3 0 0 0 0 3 6 6
6 10 6 6 3 3 3 3 3 3 3 3 3 6 6 10 6 3 0 6 10 13 13 13 10 6 6 0 6 13 13 13 13 13 6 3 0 0 0 0 3 6 6
6 10 6 6 3 3 6 3 3 3 3 3 3 3 6 6 6 3 3 6 6 10 10 10 10 3 0 0 0 6 10 10 10 6 6 6 6 6 6 3 3 6 6
3 3 0 0 0 3 3 6 6 3 3 3 6 6 6 6 6 6 3 0 0 6 10 10 10 6 3 0 0 0 0 0 0 0 3 3 3 6 6 3 3 6 6
3 0 0 0 0 0 3 3 3 3 6 10 10 10 6 6 6 0 0 0 0 0 6 10 3 0 0 3 0 0 0 0 3 3 3 3 3 6 6 3 3 3 3
3 0 0 0 0 0 0 0 0 6 6 10 10 6 3 3 6 6 6 3 0 0 3 6 0 0 0 0 0 3 3 3 3 3 3 3 3 3 3 3 3 3 3
0 0 0 0 0 0 0 0 3 3 3 6 3 3 3 3 0 3 3 6 6 6 3 6 3 3 3 3 3 3 3 3 3 3 3 3 6 6 6 6 3 3 3
0 0 0 0 0 0 0 0 0 0 0 0 0 0 0 0 0 0 0 3 3 0 0 6 3 0 3 3 0 0 3 3 3 6 3 6 3 3 6 6 6 3 3
0 0 0 0 0 0 0 0 0 0 0 0 0 0 0 0 0 0 0 0 0 0 0 3 6 6 6 3 3 6 6 6 6 6 3 3 6 6 6 6 3 3 3
0 0 0 0 0 0 0 0 0 0 0 0 0 0 0 0 0 0 0 0 0 0 0 3 3 3 3 3 3 6 6 3 3 6 6 6 6 6 6 6 3 0 0
0 0 0 0 0 0 0 0 0 0 0 0 0 0 0 0 0 0 0 0 0 0 0 0 3 3 3 3 3 3 3 3 3 3 0 0 0 0 0 0 0 0 0
0 0 0 0 0 0 0 0 0 0 0 0 0 0 0 0 0 0 0 0 0 0 0 0 0 3 3 0 0 0 0 0 0 0 0 0 0 0 0 0 0 0 0
0 0 0 0 0 3 3 0 0 0 0 0 0 0 0 0 0 0 0 0 0 0 0 0 0 0 0 0 0 0 0 0 0 0 0 0 0 0 0 0 0 0 0
0 0 0 0 0 3 3 3 0 0 0 0 0 0 0 0 0 0 0 0 0 0 0 0 0 0 0 0 0 0 0 0 0 0 0 0 0 0 0 0 0 0 0
0 0 0 0 0 3 3 3 3 0 0 0 0 0 0 0 0 0 0 0 0 0 0 0 0 0 0 0 0 0 0 0 0 0 0 0 0 0 0 0 0 0 0
0 0 0 0 0 0 0 3 3 3 0 0 0 0 0 0 0 0 0 0 0 0 0 0 0 0 0 0 0 0 0 0 0 0 0 0 0 0 0 0 0 0 0
0 0 0 0 0 0 0 0 3 0 0 0 0 0 0 0 0 0 0 0 0 0 0 0 0 0 0 0 0 0 0 0 0 0 0 0 0 0 0 0 0 0 0
0 0 0 0 0 0 0 3 3 0 0 0 0 0 0 0 0 0 0 0 0 0 0 0 0 0 0 0 0 0 0 0 0 0 0 0 0 0 0 0 0 0 0
Height
5872 5870 5868 5866 5864 5862 5859 5857 5854 5852 5849 5847 5845 5844 5842 5840 5838 5836 5834 5832 5830 5829 5827 5825 5823 5821 5819 5817 5814 5812 5810 5808 5806 5804 5801 5799 5796 5794 5792 5791 5789 5787 5786
5869 5867 5865 5862 5860 5857 5855 5852 5850 5847 5845 5842 5840 5838 5836 5834 5833 5831 5829 5827 5825 5823 5821 5819 5817 5815 5813 5810 5808 5806 5803 5801 5799 5797 5794 5792 5789 5787 5785 5783 5782 5780 5778
5864 5862 5860 5858 5855 5853 5850 5848 5845 5842 5840 5837 5835 5832 5830 5829 5827 5825 5823 5821 5819 5817 5815 5813 5811 5808 5806 5804 5801 5799 5796 5794 5792 5789 5787 5785 5782 5780 5778 5776 5774 5772 5771
5859 5857 5855 5852 5850 5847 5845 5843 5840 5837 5834 5831 5829 5826 5824 5822 5821 5819 5817 5815 5812 5810 5808 5806 5804 5802 5800 5797 5795 5792 5790 5787 5784 5782 5780 5778 5776 5773 5771 5769 5767 5764 5763
5854 5852 5850 5847 5845 5842 5840 5837 5833 5831 5828 5826 5824 5821 5818 5816 5814 5813 5810 5808 5805 5803 5801 5799 5797 5795 5792 5790 5787 5785 5783 5780 5778 5775 5773 5771 5769 5766 5764 5761 5759 5756 5755
5850 5847 5845 5842 5839 5837 5834 5831 5827 5825 5823 5820 5818 5815 5813 5810 5808 5806 5803 5801 5798 5796 5794 5792 5790 5788 5785 5782 5780 5778 5776 5773 5771 5768 5766 5764 5761 5759 5756 5753 5751 5749 5748
5845 5842 5839 5836 5833 5831 5828 5824 5822 5819 5817 5814 5811 5809 5807 5804 5802 5799 5797 5794 5792 5789 5787 5785 5782 5780 5777 5775 5772 5770 5768 5765 5763 5760 5758 5755 5753 5751 5749 5746 5743 5741 5740
5839 5837 5834 5831 5828 5825 5822 5819 5816 5813 5810 5807 5805 5802 5800 5797 5795 5792 5790 5787 5785 5782 5779 5777 5774 5772 5769 5767 5765 5762 5760 5757 5755 5752 5750 5748 5746 5743 5741 5739 5736 5733 5732
5833 5830 5828 5825 5822 5819 5815 5812 5809 5806 5803 5800 5798 5795 5793 5790 5787 5785 5782 5780 5777 5774 5772 5769 5766 5764 5761 5759 5757 5754 5752 5749 5746 5744 5742 5739 5737 5735 5733 5730 5728 5726 5724
5827 5824 5821 5818 5815 5812 5809 5805 5802 5799 5796 5793 5790 5788 5785 5782 5780 5777 5774 5771 5769 5767 5764 5761 5758 5756 5753 5750 5748 5746 5744 5741 5738 5736 5734 5731 5729 5727 5725 5723 5720 5718 5716
5820 5817 5814 5811 5808 5804 5801 5798 5795 5791 5789 5786 5783 5780 5777 5774 5771 5769 5766 5763 5761 5758 5756 5753 5750 5747 5745 5742 5740 5737 5735 5732 5730 5728 5726 5723 5721 5719 5717 5714 5712 5710 5708
5813 5810 5807 5803 5800 5797 5794 5790 5787 5784 5781 5777 5774 5771 5768 5765 5763 5760 5758 5755 5752 5750 5747 5745 5742 5739 5736 5733 5730 5728 5726 5724 5722 5720 5717 5715 5713 5711 5708 5706 5704 5702 5700
5806 5803 5799 5796 5792 5789 5786 5782 5779 5775 5772 5769 5766 5762 5759 5756 5754 5751 5749 5746 5744 5741 5739 5736 5733 5730 5727 5724 5722 5719 5717 5715 5713 5711 5709 5707 5704 5702 5700 5698 5696 5694 5692
5798 5795 5791 5788 5784 5781 5777 5774 5770 5767 5764 5760 5757 5754 5751 5748 5745 5743 5740 5738 5735 5733 5730 5727 5724 5721 5719 5716 5713 5710 5708 5706 5704 5702 5700 5698 5696 5694 5692 5690 5688 5686 5684
5790 5786 5783 5779 5776 5772 5768 5765 5761 5758 5754 5751 5748 5745 5742 5740 5737 5734 5731 5729 5726 5724 5721 5718 5715 5713 5710 5707 5705 5702 5700 5697 5696 5693 5691 5689 5687 5685 5683 5682 5680 5678 5677
5782 5778 5774 5771 5767 5764 5760 5756 5752 5749 5746 5742 5740 5737 5734 5731 5728 5726 5723 5721 5718 5715 5713 5710 5707 5704 5702 5699 5697 5694 5692 5690 5687 5685 5683 5681 5679 5677 5676 5674 5672 5670 5669
5774 5770 5766 5763 5759 5755 5751 5748 5744 5741 5737 5734 5731 5728 5726 5723 5721 5718 5716 5713 5710 5707 5704 5702 5699 5697 5694 5692 5689 5687 5684 5682 5680 5678 5675 5673 5672 5670 5668 5666 5664 5663 5661
5765 5762 5758 5754 5750 5746 5743 5739 5736 5733 5730 5726 5723 5721 5718 5716 5713 5710 5708 5705 5702 5699 5696 5694 5691 5689 5687 5684 5682 5679 5677 5675 5672 5670 5668 5666 5664 5662 5660 5658 5657 5655 5653
5756 5753 5749 5745 5742 5738 5734 5731 5727 5724 5721 5718 5715 5712 5710 5707 5705 5702 5699 5697 5694 5691 5689 5686 5684 5681 5679 5677 5674 5672 5670 5668 5665 5663 5661 5658 5656 5655 5653 5651 5649 5647 5646
5747 5744 5740 5737 5733 5729 5726 5722 5719 5715 5712 5709 5707 5704 5701 5699 5697 5694 5691 5689 5686 5684 5681 5679 5676 5673 5671 5669 5667 5664 5663 5661 5658 5656 5654 5652 5650 5648 5646 5644 5642 5640 5639
5738 5735 5731 5728 5724 5721 5717 5714 5710 5707 5704 5701 5699 5696 5693 5691 5689 5686 5684 5681 5679 5676 5674 5671 5669 5666 5664 5661 5659 5657 5655 5653 5651 5649 5647 5645 5643 5641 5639 5637 5635 5633 5632
5729 5726 5722 5719 5716 5712 5709 5706 5703 5700 5697 5694 5691 5688 5685 5683 5681 5678 5676 5674 5671 5669 5667 5664 5661 5659 5657 5654 5652 5650 5648 5646 5644 5642 5640 5638 5636 5634 5632 5630 5628 5626 5625
5720 5717 5714 5711 5708 5705 5701 5698 5695 5692 5689 5686 5683 5681 5678 5676 5673 5671 5669 5666 5664 5662 5660 5657 5655 5652 5650 5647 5645 5643 5641 5639 5637 5635 5633 5631 5629 5627 5625 5623 5621 5620 5618
5713 5710 5707 5703 5700 5697 5694 5691 5688 5685 5682 5679 5676 5674 5671 5669 5667 5664 5662 5659 5657 5655 5653 5650 5648 5645 5643 5640 5638 5636 5633 5631 5629 5627 5625 5623 5621 5620 5618 5616 5614 5613 5611
5706 5703 5699 5696 5693 5690 5687 5684 5681 5678 5675 5672 5670 5667 5664 5662 5660 5657 5655 5653 5650 5648 5646 5643 5641 5638 5636 5633 5631 5629 5626 5624 5622 5620 5618 5616 5614 5613 5611 5609 5607 5605 5604
5699 5696 5693 5689 5686 5683 5680 5677 5674 5671 5669 5666 5663 5661 5658 5656 5654 5651 5649 5646 5644 5641 5639 5637 5634 5632 5629 5626 5624 5621 5619 5617 5614 5612 5610 5609 5607 5606 5604 5602 5600 5599 5597
Wind_Speed
17 17 17 18 19 20 21 20 20 21 20 20 19 20 20 21 21 20 20 20 20 20 20 21 21 21 22 23 23 23 23 23 23 23 24 25 26 26 25 25 25 25 26
18 19 20 20 21 22 22 22 22 22 22 21 21 21 21 22 22 22 21 22 22 22 22 23 22 23 24 24 25 25 25 25 25 24 25 25 26 26 26 27 26 26 27
19 20 22 22 22 23 23 23 23 23 23 24 24 23 23 23 24 23 23 23 24 24 24 24 25 25 25 26 26 27 27 27 26 26 25 25 25 25 26 27 27 27 27
20 22 22 22 23 23 24 24 24 24 24 24 24 24 24 24 24 24 24 25 26 26 26 26 26 27 27 27 27 27 27 27 26 25 25 25 25 25 26 27 27 27 27
21 23 23 23 24 24 24 25 24 24 25 25 25 24 24 24 25 25 26 27 27 27 27 27 28 28 28 28 27 27 27 27 26 26 26 26 26 26 27 27 27 26 27
23 24 24 24 24 25 25 25 24 25 24 25 25 25 25 25 26 26 27 27 28 27 28 28 29 28 28 28 28 27 27 27 27 27 27 27 27 27 27 27 27 27 27
24 24 25 25 26 25 25 25 25 26 26 26 26 26 26 26 27 27 27 28 28 28 29 29 29 29 29 28 27 27 27 28 28 28 28 28 28 28 27 27 27 27 27
25 25 26 26 26 26 26 27 27 27 27 27 26 27 27 27 27 28 28 28 29 29 29 29 29 29 29 29 29 29 28 29 29 28 28 28 28 27 27 27 27 26 26
26 26 27 27 27 27 28 28 28 28 28 28 28 28 28 28 29 29 28 28 29 29 29 29 29 28 28 29 29 29 29 29 29 28 28 28 27 27 27 27 26 26 26
28 28 28 28 28 28 28 29 29 29 29 29 30 30 29 30 30 30 30 29 29 29 29 29 29 28 29 29 30 30 30 29 28 28 28 28 27 27 27 27 27 27 27
29 29 30 30 30 30 30 30 30 31 30 30 30 30 30 31 31 31 31 31 30 30 29 29 29 30 30 30 31 30 30 29 28 28 28 28 27 27 27 27 27 27 27
30 30 31 31 30 30 30 31 31 31 31 31 31 31 31 31 31 31 31 31 31 30 30 30 30 31 31 30 31 30 29 29 29 28 28 28 28 27 27 27 27 27 26
31 31 32 32 31 31 32 32 32 31 31 32 32 32 32 31 31 30 31 31 31 31 30 30 31 31 30 31 30 30 29 29 28 28 28 28 27 27 26 26 26 26 26
32 32 33 32 32 33 33 33 33 32 31 31 32 31 31 31 30 30 30 30 31 31 31 30 30 30 30 30 29 29 29 28 28 28 28 27 27 26 26 25 25 26 26
33 33 33 33 33 33 32 33 33 33 33 32 32 32 31 30 30 29 29 29 30 30 30 30 29 29 29 28 28 28 28 28 27 27 27 26 26 26 25 25 25 26 26
33 33 33 33 33 33 33 33 33 33 33 32 32 31 31 30 29 29 29 29 29 29 29 28 28 27 27 26 27 27 26 26 26 26 26 26 26 25 25 25 25 26 26
33 34 34 34 33 33 33 33 33 32 32 31 30 30 29 29 29 29 29 30 30 29 28 28 27 26 26 26 26 26 26 26 26 26 26 26 26 26 25 25 25 25 25
34 34 34 33 33 33 33 32 31 31 30 30 29 29 29 29 29 29 29 29 29 29 28 27 26 26 25 25 25 25 25 25 25 25 25 25 25 24 24 24 24 24 25
34 33 33 33 33 33 32 31 31 30 30 29 29 29 29 29 29 29 29 29 29 28 27 26 26 25 25 25 25 25 24 25 25 25 24 24 23 23 23 24 24 24 24
33 33 32 32 32 32 32 31 30 30 29 29 29 29 28 28 28 28 28 28 27 27 26 25 25 25 25 25 25 24 24 25 25 24 24 23 23 23 23 23 23 23 22
33 32 31 31 31 31 31 31 30 29 29 29 28 28 27 27 27 27 27 27 26 26 25 24 24 24 23 24 24 24 24 24 24 23 23 23 23 23 23 23 23 22 22
32 31 30 30 30 30 30 29 29 29 29 29 28 27 27 27 27 26 25 25 25 25 24 24 23 23 23 24 24 24 24 23 23 23 23 23 23 23 22 22 22 22 22
30 29 29 30 30 30 29 28 28 28 28 28 27 26 26 26 25 25 25 25 24 24 24 24 24 23 23 23 23 23 24 24 24 24 24 23 23 23 22 22 22 22 22
28 28 28 29 29 28 27 27 27 27 27 26 25 25 24 24 24 24 23 23 23 23 23 23 23 23 23 24 24 24 24 24 24 24 23 23 22 22 22 22 22 22 22
28 28 28 28 27 26 26 26 26 26 26 24 23 23 23 23 23 22 22 22 22 23 23 23 24 24 25 25 24 24 25 25 25 24 23 23 22 22 22 22 22 22 22
28 28 28 27 26 25 25 25 25 25 24 23 23 24 23 23 23 22 22 23 23 23 23 24 25 26 26 25 25 25 25 25 25 24 23 23 23 22 22 22 22 22 21
Wind_Direction
313 312 311 310 309 308 308 309 309 305 304 303 302 302 301 301 302 301 300 301 301 302 303 303 304 305 303 301 299 296 295 295 294 292 290 289 289 288 287 286 286 287 286
309 307 307 306 306 307 307 307 306 305 304 302 302 301 299 299 300 299 300 300 300 301 301 302 303 304 304 302 299 298 297 295 293 293 293 292 290 288 286 286 286 287 285
306 306 305 305 305 306 305 304 303 302 302 302 303 299 298 297 298 298 299 301 300 299 300 301 301 302 302 301 299 298 297 296 294 294 295 294 291 289 288 287 287 286 283
306 306 305 305 306 305 305 303 302 302 303 302 303 303 301 298 297 298 299 300 300 299 298 298 299 300 300 300 299 297 296 296 296 297 297 297 294 293 290 289 289 286 283
306 308 307 305 306 305 304 304 302 303 304 303 304 304 303 301 299 298 298 299 299 299 299 298 298 299 299 297 297 296 296 295 296 297 297 297 296 294 293 291 290 288 286
306 307 307 306 306 305 305 304 302 302 305 304 303 303 303 302 300 299 299 300 301 300 300 298 297 296 297 296 296 296 296 295 295 296 295 295 295 295 295 293 291 290 289
306 307 307 306 306 305 304 305 305 305 304 303 303 301 301 301 300 299 299 300 300 300 299 297 296 295 295 294 294 295 296 296 295 295 295 295 295 294 293 294 293 291 290
305 306 305 305 305 304 305 305 305 304 303 302 302 301 300 300 300 300 299 299 299 300 299 298 297 295 294 293 293 294 295 297 297 295 295 294 295 295 295 296 295 293 290
305 305 305 305 304 304 304 303 303 303 302 300 300 300 300 300 300 299 299 300 300 300 300 299 298 297 296 296 295 296 296 296 296 295 294 295 295 295 295 295 294 293 292
305 305 304 304 304 304 303 302 301 300 301 300 300 299 299 300 299 297 299 300 300 300 300 299 298 297 296 296 297 297 297 296 297 296 294 294 295 294 293 293 292 292 291
304 304 305 304 303 303 303 302 301 301 300 300 300 300 299 299 299 297 298 299 299 299 299 299 297 296 295 295 295 296 295 294 295 295 294 293 293 293 292 291 291 291 291
303 304 304 304 304 303 302 302 301 301 300 300 300 299 299 298 298 297 296 298 298 299 298 298 297 296 295 295 295 295 294 294 294 295 294 293 292 292 291 291 291 291 292
303 303 303 303 303 302 301 301 302 301 300 300 300 299 299 298 297 297 297 296 298 299 299 299 298 297 296 295 295 294 293 293 294 294 294 292 291 291 291 290 290 292 292
303 302 302 303 302 301 301 301 301 301 300 300 300 300 300 298 297 297 296 296 297 298 298 298 298 297 296 295 295 296 295 294 293 293 292 292 292 290 289 290 291 291 291
303 304 303 302 302 302 302 303 303 302 301 301 301 301 301 300 298 297 296 297 298 298 298 298 298 297 297 296 295 296 296 294 293 292 291 292 292 290 289 290 291 292 290
305 304 303 303 302 302 302 303 303 302 301 301 300 300 299 300 298 297 298 300 300 300 300 299 299 300 299 298 297 296 296 295 294 294 291 290 290 289 289 289 290 291 290
304 303 302 303 303 303 304 303 302 302 302 300 300 299 299 298 299 298 300 301 301 301 301 301 300 299 299 298 299 298 296 296 296 295 291 291 291 290 289 289 289 290 290
303 303 302 303 303 304 305 305 303 302 301 301 300 299 299 299 300 300 299 300 300 300 301 301 301 299 299 298 300 301 299 298 298 298 297 294 292 290 289 290 291 291 293
303 303 303 303 303 304 305 306 305 304 302 301 301 300 298 298 299 300 299 300 301 299 299 299 300 300 299 298 300 300 298 299 299 299 299 298 296 293 291 291 291 292 292
302 303 303 303 303 304 305 305 305 304 303 302 300 299 298 298 299 299 298 298 300 301 300 300 300 300 299 299 300 298 298 300 299 298 297 297 297 296 295 294 293 292 293
302 302 302 303 304 304 304 305 304 304 304 303 302 301 300 300 300 300 300 299 299 301 301 301 301 301 300 299 299 300 300 300 299 298 297 297 296 296 296 295 293 293 294
302 302 303 304 305 305 305 305 304 304 305 304 303 302 301 301 301 300 299 300 299 299 300 301 301 300 300 299 299 300 300 300 299 297 296 296 296 296 296 295 293 292 292
303 304 305 306 306 307 307 307 305 305 305 305 303 302 302 302 302 302 301 301 300 300 300 301 302 300 299 299 300 301 301 300 299 298 297 296 296 295 295 294 293 293 293
306 306 306 306 307 307 307 307 306 305 305 304 303 302 302 302 302 303 303 301 301 302 302 302 302 302 301 300 301 301 301 300 299 297 296 296 295 295 295 295 294 293 294
307 307 307 307 305 305 306 306 306 306 306 304 304 304 304 303 302 303 302 301 302 303 302 301 302 302 301 302 301 301 301 300 298 296 294 294 294 293 293 295 295 294 293
308 309 309 308 306 305 306 306 306 307 306 304 305 305 305 304 304 302 301 301 302 303 303 302 303 303 303 302 301 301 302 300 298 296 293 292 292 292 293 294 296 295 292